Theta_e
292 291 290 289 289 289 289 289 290 290 290 290 291 290 290 291 292 292 293 293 293 294 296 297 299 301 302 304 304 303 301 299 295 291 292 293 293 294 294 304 304 303 304
291 290 289 288 288 288 288 289 290 289 290 290 290 290 290 291 291 291 291 293 292 293 294 295 297 299 300 304 304 303 302 302 296 288 286 288 293 294 294 295 297 302 303
290 288 287 287 287 287 288 289 290 290 290 290 290 290 290 291 291 291 291 293 292 292 293 295 295 299 296 302 304 303 305 304 295 287 286 287 287 292 289 291 290 291 294
289 288 287 287 287 287 288 288 289 289 289 289 290 290 290 290 291 291 291 291 291 292 294 296 296 295 296 298 303 303 302 297 291 290 286 287 286 287 290 290 287 287 287
287 287 287 287 287 287 287 288 289 289 289 289 289 289 290 290 290 290 291 291 291 290 294 295 295 294 292 295 300 302 300 296 293 290 286 285 284 285 288 287 288 287 285
287 286 287 286 286 286 287 287 287 288 288 288 288 289 289 290 291 291 291 290 290 291 291 292 292 289 292 293 295 299 300 297 293 291 287 287 287 287 288 286 286 284 282
286 286 286 286 285 286 286 287 286 287 287 287 287 288 288 289 291 291 291 290 290 290 290 290 289 291 289 293 294 296 296 297 297 295 290 289 287 288 288 286 287 287 285
285 285 285 285 285 285 285 285 286 286 286 286 286 286 288 289 291 291 291 291 291 290 290 289 288 289 291 292 293 294 291 292 292 291 292 290 290 289 289 288 287 282 282
285 284 284 285 285 285 285 285 286 285 285 285 285 286 286 288 291 291 291 288 287 288 288 289 290 290 291 293 291 289 288 287 292 293 293 292 292 291 289 285 283 283 278
284 284 285 285 285 285 285 285 285 285 285 285 285 285 286 287 290 291 291 286 286 286 286 288 286 289 291 293 290 289 286 285 287 287 287 287 288 289 289 287 285 284 278
285 285 285 285 285 285 285 285 285 285 285 285 285 285 285 286 288 293 293 287 286 285 285 285 286 291 291 291 291 288 286 286 286 283 283 283 282 282 283 284 284 284 281
285 285 285 285 285 285 285 285 285 285 284 284 284 284 285 285 288 290 290 289 289 286 286 287 288 290 290 290 288 289 288 285 283 281 280 279 279 279 279 280 280 280 280
284 285 285 285 285 285 284 284 284 284 283 283 283 282 283 284 285 288 289 289 288 286 286 288 288 288 288 288 287 286 284 283 281 279 278 277 278 279 279 279 279 278 277
283 284 284 285 285 284 285 284 283 283 281 281 282 282 282 283 284 285 285 285 285 285 285 285 286 285 285 283 282 282 282 282 280 279 278 279 280 280 279 279 277 275 273
282 283 283 283 284 283 283 284 283 284 284 282 283 283 282 282 284 286 284 283 283 284 284 283 282 281 281 281 281 281 282 281 280 280 279 278 278 278 277 278 277 274 271
280 282 281 282 279 280 281 281 286 286 287 287 287 286 285 287 287 287 287 287 286 285 281 279 278 279 279 279 279 278 279 279 279 278 278 277 275 274 272 271 271 269 266
278 278 277 278 276 276 275 277 277 281 285 286 286 287 287 287 287 286 286 286 285 283 279 278 277 277 276 275 275 274 273 274 276 275 273 272 270 269 269 267 267 265 263
274 274 277 276 276 274 274 273 272 271 277 278 283 284 285 285 285 285 284 282 278 278 277 276 275 274 273 272 271 271 270 270 270 269 268 267 266 265 264 263 263 262 261
274 275 275 275 275 275 274 272 271 269 270 272 271 276 277 281 281 280 279 275 273 272 271 270 269 268 268 267 266 266 266 265 265 265 263 263 262 262 261 261 260 259 258
275 275 276 276 275 275 273 273 271 269 275 275 268 266 266 269 270 268 269 268 267 267 267 267 266 266 266 266 265 265 264 263 263 262 261 261 259 261 259 257 257 257 254
278 276 277 276 277 277 275 273 271 269 274 275 274 271 274 268 265 266 266 265 266 266 265 265 264 264 264 264 263 263 262 261 262 261 261 260 260 259 258 257 256 255 254
278 277 277 278 276 276 276 274 272 270 271 273 273 273 272 265 264 263 263 262 261 261 262 264 262 261 260 262 262 261 260 259 260 260 259 259 258 257 256 256 255 252 250
279 276 277 277 277 275 275 277 274 270 267 265 264 263 263 263 262 261 261 260 260 260 258 263 262 261 259 258 258 261 261 260 259 261 259 259 258 255 255 252 251 248 247
280 277 277 278 276 277 276 277 274 269 267 266 264 263 262 261 260 259 259 260 259 257 258 260 260 260 259 259 259 259 259 256 256 259 260 259 255 253 252 248 248 247 246
280 279 278 278 277 276 274 273 270 269 267 266 264 263 262 261 260 259 258 259 259 259 257 257 260 258 258 258 259 258 262 258 256 256 257 256 255 253 248 248 247 246 245
281 279 279 278 277 276 274 271 270 269 267 266 264 263 262 261 260 259 259 259 259 257 256 256 257 257 257 258 258 260 264 262 257 256 255 255 254 248 247 248 247 246 245
Wind_Speed
9 11 10 12 12 13 11 12 13 15 16 16 16 16 16 16 14 14 15 14 15 15 15 15 14 18 12 9 10 9 9 8 7 2 2 5 1 3 4 12 13 15 15
10 10 11 12 12 11 12 13 14 16 17 17 17 17 16 16 15 16 16 15 15 15 14 16 13 12 11 13 11 12 10 10 5 5 2 2 5 7 4 6 7 10 12
11 11 13 13 11 12 12 13 15 16 16 16 15 16 16 16 16 16 15 15 15 13 14 15 6 16 5 14 12 11 9 7 4 4 4 1 2 4 3 2 2 2 1
10 11 11 11 10 12 12 14 16 15 16 15 14 16 16 15 15 15 14 14 14 13 14 11 9 8 8 13 13 11 9 6 5 6 3 3 3 1 3 6 3 1 2
11 10 10 12 10 12 12 14 14 14 14 14 14 14 14 13 11 13 13 12 13 13 10 11 11 11 9 11 6 10 11 9 8 7 4 3 3 4 10 5 5 3 1
10 10 10 12 11 12 12 13 13 13 13 13 13 11 12 7 13 18 14 10 11 10 10 8 6 6 6 10 14 16 17 13 9 6 3 4 5 4 6 6 5 5 4
9 9 10 11 12 12 12 12 12 12 12 12 12 11 9 8 12 16 16 10 8 11 9 5 6 4 5 7 11 14 15 17 17 12 8 6 6 10 10 10 10 9 3
8 9 10 11 11 11 12 11 11 10 11 11 11 10 7 6 10 12 12 8 8 4 4 6 6 7 5 8 7 9 6 6 8 5 6 5 4 7 9 5 6 6 6
8 9 10 10 11 11 11 11 10 9 9 10 9 10 6 5 8 10 8 4 4 7 6 6 6 6 5 13 10 10 10 6 10 14 13 12 14 16 12 9 7 9 3
8 9 9 10 9 10 10 10 7 7 8 7 9 8 10 8 8 10 7 2 3 2 2 5 7 5 10 17 11 12 11 6 11 10 9 11 11 8 10 3 9 8 5
8 8 8 9 9 9 9 7 6 7 6 7 8 7 10 11 8 3 8 3 3 2 1 2 1 12 13 12 15 10 11 12 16 11 10 9 8 7 7 7 6 4 4
8 7 6 8 8 7 9 7 6 6 5 6 6 6 7 10 14 7 9 9 8 5 6 7 10 20 21 20 17 26 25 18 10 10 9 8 8 8 7 10 12 13 13
6 6 5 7 8 8 8 9 6 6 6 5 5 6 6 6 7 16 16 17 16 11 9 18 25 26 27 23 25 24 16 10 11 11 10 9 8 7 10 12 14 17 18
4 5 3 5 7 8 7 6 7 5 5 5 5 5 5 6 6 6 9 10 17 13 14 13 20 22 23 18 14 15 10 10 11 11 10 8 7 6 8 7 9 10 12
3 4 2 1 3 5 6 7 6 7 8 6 5 5 4 6 7 11 9 8 8 11 11 10 10 11 11 11 11 11 11 11 11 9 9 9 9 8 8 6 8 11 10
4 3 2 0 2 2 3 4 14 16 18 18 17 11 8 15 17 19 19 19 20 18 11 10 10 10 11 10 11 11 10 11 9 9 9 8 9 10 9 9 9 10 9
5 5 2 1 3 1 2 2 3 6 19 19 19 18 18 16 18 20 22 22 20 16 10 9 10 10 9 10 9 9 9 8 10 9 9 9 9 9 9 9 9 9 9
6 6 4 3 2 3 3 2 1 2 4 5 15 14 18 18 17 16 18 17 10 12 9 9 9 8 9 9 8 8 8 8 8 8 9 9 9 9 8 8 7 8 8
7 5 5 3 3 4 3 3 2 2 2 2 3 8 9 19 21 21 19 9 8 8 7 9 8 8 8 7 7 7 8 7 8 9 9 9 8 8 8 7 7 8 7
7 8 6 5 4 3 3 4 3 3 3 3 2 1 3 4 6 7 7 7 8 7 6 7 6 6 7 8 8 8 9 10 9 9 8 7 5 7 8 6 5 7 4
7 7 9 6 6 6 5 4 3 3 4 4 3 3 10 7 6 6 6 6 6 6 6 6 6 6 7 7 8 9 9 8 8 8 7 7 6 7 4 5 6 5 5
8 8 8 8 6 6 6 5 4 4 4 5 5 7 14 6 6 6 6 6 5 4 3 7 7 6 4 6 7 8 9 9 8 7 7 6 6 6 5 6 6 5 5
9 10 9 7 8 8 7 6 6 6 5 4 4 4 4 6 6 6 6 4 5 5 3 6 8 7 5 5 5 7 9 8 6 7 8 7 7 6 5 5 4 4 3
12 12 11 9 9 9 9 9 7 7 7 6 6 5 6 6 6 7 6 6 7 5 4 6 6 8 8 7 6 6 7 5 3 7 9 8 6 6 5 4 3 3 3
11 12 11 11 11 10 9 8 8 8 7 7 6 7 7 8 7 6 5 5 6 7 6 5 6 9 10 10 10 9 10 10 8 7 6 7 8 7 4 4 3 2 3
12 13 12 10 10 10 10 10 9 9 9 8 7 8 8 8 8 7 7 7 7 6 7 5 7 10 10 9 9 10 11 10 8 9 6 6 6 4 4 5 5 3 3
Wind_Direction
319 309 307 309 302 298 291 293 286 283 278 275 272 268 266 263 258 262 264 244 254 253 249 253 250 237 247 215 219 209 199 194 192 88 13 143 104 284 163 186 177 185 195
316 311 305 306 297 295 293 291 284 278 275 272 270 267 263 258 252 252 254 253 244 250 250 249 252 249 263 222 203 201 190 194 167 150 137 134 162 184 217 180 177 193 198
317 306 310 312 299 299 298 296 287 282 278 274 271 268 264 256 250 246 247 248 235 245 260 240 253 254 246 236 198 198 184 184 140 136 130 99 90 152 142 151 136 90 124
314 304 304 307 302 298 299 292 286 284 281 277 276 271 263 256 247 242 242 244 246 255 239 262 234 271 248 290 190 193 181 156 130 126 107 139 119 98 150 188 180 111 134
311 305 310 304 298 291 298 293 290 287 284 287 283 275 270 255 243 237 235 235 243 235 247 225 228 231 257 271 268 184 179 164 149 153 128 110 135 145 186 164 187 145 333
308 307 303 298 302 299 304 296 293 294 299 298 292 285 288 258 243 235 230 233 232 231 227 243 229 216 222 248 261 180 179 166 163 144 137 157 181 166 157 168 144 151 204
299 302 308 307 305 311 300 297 301 310 311 304 300 292 287 264 250 247 234 229 227 226 227 237 222 217 240 255 214 196 172 166 167 172 165 164 158 180 167 175 188 194 180
297 308 309 306 305 309 301 303 312 314 312 311 311 302 292 281 263 254 243 229 228 196 217 218 226 235 241 231 162 186 133 124 134 145 152 151 137 137 170 166 151 97 73
316 305 306 305 305 309 305 314 313 313 317 320 323 324 297 288 278 258 236 187 216 220 220 242 223 219 226 159 144 128 100 83 86 95 105 126 140 146 142 123 147 146 109
317 306 307 304 308 305 309 306 309 310 309 323 335 349 342 303 284 248 236 162 208 198 185 221 221 186 175 155 143 130 115 113 106 90 83 73 75 125 140 109 152 149 125
303 302 312 315 321 313 309 300 314 318 321 341 341 353 2 349 334 336 191 152 143 91 47 99 118 136 109 113 116 115 117 112 99 94 85 76 71 67 62 70 71 113 114
301 302 327 341 336 334 323 321 333 324 338 347 348 2 13 358 11 45 107 112 118 101 86 80 89 98 99 104 98 110 111 104 99 92 89 77 75 69 66 73 71 68 59
304 306 350 344 352 351 340 347 346 340 360 346 1 12 15 10 24 48 73 84 86 83 85 92 90 90 90 85 98 100 97 98 101 96 89 83 80 87 91 84 80 76 65
295 303 9 359 358 7 348 358 1 4 5 4 10 21 14 20 30 50 68 72 71 72 74 79 89 89 86 86 80 74 79 90 99 99 102 98 87 74 74 79 89 85 77
248 278 11 11 5 5 356 16 7 28 39 37 20 21 29 46 57 73 81 86 89 95 96 85 81 80 83 83 83 85 87 86 90 96 97 93 90 90 69 61 67 72 80
203 243 234 137 35 49 345 351 32 55 59 56 54 66 61 74 78 82 85 86 89 94 85 84 80 78 79 82 83 82 75 80 81 85 87 93 87 77 74 65 72 76 81
197 218 231 185 114 85 51 11 335 13 55 62 64 62 66 77 76 81 84 82 80 83 77 76 78 76 77 74 74 75 76 64 74 76 82 82 83 80 83 78 80 85 79
191 209 193 192 178 137 125 106 39 344 48 44 56 71 71 72 73 76 84 79 64 53 68 78 77 74 75 79 76 81 80 78 81 87 82 77 77 86 82 78 82 102 106
189 199 189 171 187 155 145 124 107 63 33 37 359 50 49 76 73 69 63 71 79 70 64 69 69 77 82 88 90 86 86 83 78 77 71 77 75 89 89 94 98 97 102
197 186 179 159 168 167 153 134 126 97 94 71 358 14 351 34 62 60 57 70 75 74 76 84 85 91 98 99 96 94 87 80 82 85 85 87 85 104 104 98 100 109 93
186 182 181 156 173 174 167 154 149 128 122 108 57 54 82 97 89 80 81 73 87 92 97 98 96 92 90 90 90 90 92 93 94 100 99 92 94 101 101 109 110 105 106
179 181 176 182 161 168 170 150 140 130 138 128 105 100 101 83 89 90 85 82 75 73 73 103 95 87 88 105 112 110 108 106 104 106 107 112 118 113 101 93 82 67 65
175 176 174 178 163 161 156 161 145 145 139 120 114 110 96 102 105 102 99 80 78 71 33 93 102 95 78 80 74 104 117 125 132 129 125 118 106 93 87 90 100 89 92
177 175 178 172 163 172 166 166 149 144 145 142 137 126 119 116 111 111 112 113 108 87 74 86 90 103 100 91 87 90 100 105 106 114 110 107 103 101 97 97 122 110 106
185 173 175 175 169 171 160 155 152 151 152 147 143 132 130 124 119 116 106 109 108 104 93 93 103 109 110 114 116 115 114 103 103 104 93 102 115 121 115 112 122 96 101
188 179 172 171 171 167 166 156 160 159 158 153 149 143 141 135 130 132 134 128 119 114 112 102 112 116 117 113 113 113 113 114 107 109 110 113 115 106 106 115 107 105 124